Home > Weather > Podgorica > Past weeks

Flag for Montenegro Weather for the Past 2 Weeks in Podgorica, Montenegro

Now
55 °F

Light rain. More clouds than sun.


Feels Like: 54 °F
Forecast: 54 / 68 °F
Wind: 6 mph from West

Location: Podgorica Titograd

Current Time: May 1, 2016 at 7:56:42 PM

Latest Report: May 1, 2016 at 7:30 PM


Visibility: N/A

Pressure: 29.92 "Hg

Humidity: 94%

Dew Point: 54 °F

Location of PodgoricaLocation

Historic Weather in Podgorica — Graph

°F

Podgorica Temperature Yesterday

Maximum temperature yesterday: 75 °F (at 5:00 PM)
Minimum temperature yesterday: 50 °F (at 5:00 AM)
Average temperature yesterday: 64 °F

High & Low Weather Summary for the Past Weeks

 TemperatureHumidityPressure
High81 °F (Apr 18, 2:30 PM)100% (Apr 23, 9:00 PM)30.27 "Hg (Apr 23, 9:00 PM)
Low46 °F (Apr 25, 6:00 PM)11% (Apr 21, 4:00 PM)29.50 "Hg (Apr 25, 5:30 AM)
Average61 °F60%29.93 "Hg
* Reported Apr 16 6:00 PM — May 1 6:30 PM, Podgorica, Weather by CustomWeather, © 2016

Note: Actual official high and low records may vary slightly from our data, if they occured in-between our weather recording intervals... More about our weather records

Advertising

Podgorica Weather History for the Previous 24 Hours

Scroll right to see more
 ConditionsComfort  
Time TempWeatherWind HumidityBarometerVisibility
6:30 PM
Sun, May 1
57 °FLight rain. More clouds than sun.3 mph82%29.92 "HgN/A
6:00 PM57 °FRain. Mostly cloudy.7 mph88%29.95 "Hg5 mi
5:30 PM59 °FRain. Mostly cloudy.5 mph94%29.95 "Hg5 mi
5:00 PM59 °FRain. Mostly cloudy.7 mph94%29.95 "Hg5 mi
4:30 PM59 °FRain. Mostly cloudy.6 mph94%29.95 "HgN/A
4:00 PM59 °FLight rain. More clouds than sun.5 mph94%29.95 "HgN/A
3:30 PM59 °FRain. More clouds than sun.6 mph88%29.95 "HgN/A
3:00 PM59 °FRain. More clouds than sun.3 mph82%29.95 "HgN/A
2:30 PM59 °FLight rain. More clouds than sun.8 mph82%29.92 "HgN/A
2:00 PM59 °FLight rain. More clouds than sun.9 mph88%29.95 "HgN/A
1:30 PM61 °FLight rain. More clouds than sun.7 mph88%29.95 "HgN/A
1:00 PM61 °FLight rain. More clouds than sun.9 mph83%29.95 "HgN/A
12:30 PM61 °FLight rain. More clouds than sun.7 mph77%29.95 "HgN/A
12:00 PM63 °FLight rain. More clouds than sun.3 mph68%29.95 "HgN/A
11:30 AM63 °FBroken clouds.3 mph64%29.95 "HgN/A
11:00 AM61 °FBroken clouds.1 mph68%29.95 "HgN/A
10:30 AM61 °FBroken clouds.2 mph68%29.95 "HgN/A
10:00 AM61 °FBroken clouds.1 mph72%29.95 "HgN/A
9:30 AM61 °FBroken clouds.1 mph68%29.95 "HgN/A
9:00 AM61 °FPartly sunny.2 mph68%29.92 "HgN/A
8:30 AM59 °FBroken clouds.2 mph72%29.92 "HgN/A
8:00 AM59 °FBroken clouds.2 mph72%29.92 "HgN/A
7:30 AM57 °FPartly sunny.3 mph77%29.92 "HgN/A
6:30 AM54 °FPassing clouds.2 mph88%29.92 "HgN/A
6:00 AM55 °FPassing clouds.2 mph77%29.92 "HgN/A
5:30 AM55 °FPassing clouds.3 mph77%29.89 "HgN/A
4:30 AM55 °FPassing clouds.1 mph77%29.92 "HgN/A
4:00 AM57 °FPassing clouds.8 mph72%29.92 "HgN/A
3:30 AM55 °FPassing clouds.8 mph77%29.92 "HgN/A
3:00 AM54 °FPassing clouds.7 mph82%29.92 "HgN/A
2:30 AM55 °FPassing clouds.6 mph82%29.92 "HgN/A
1:30 AM57 °FClear.7 mph77%29.95 "Hg10 mi
1:00 AM57 °FClear.8 mph77%29.95 "Hg10 mi
12:30 AM57 °FClear.5 mph77%29.95 "Hg10 mi
12:00 AM57 °FClear.5 mph77%29.95 "Hg10 mi
11:30 PM
Sat, Apr 30
59 °FClear.2 mph72%29.95 "Hg10 mi
11:00 PM59 °FPassing clouds.3 mph77%29.95 "HgN/A
10:30 PM61 °FClear.2 mph77%29.95 "Hg10 mi
10:00 PM61 °FClear.1 mph83%29.95 "Hg10 mi
9:30 PM63 °FClear.3 mph77%29.95 "Hg10 mi
9:00 PM64 °FClear.3 mph64%29.95 "Hg10 mi
8:30 PM64 °FPassing clouds.3 mph64%29.95 "HgN/A
8:00 PM66 °FPassing clouds.2 mph64%29.95 "HgN/A
7:30 PM70 °FPassing clouds.1 mph50%29.95 "HgN/A
7:00 PM72 °FPassing clouds.2 mph50%29.95 "HgN/A
Weather by CustomWeather, © 2016

See weather overviewHow to use our weather pages